Regional Weather Roundup
Issued by NWS Upton, NY

Home | Current Version | Previous Version | Text Only | Print | Product List | Glossary On
Versions: 1 2 3 4 5 6 7 8 9 10 11 12 13 14 15 16 17 18 19 20 21 22 23 24 25 26 27 28 29 30 31 32 33 34 35 36 37 38 39 40 41 42 43 44 45 46 47 48 49 50
000
ASUS41 KOKX 240918
RWROKX

REGIONAL WEATHER ROUNDUP
NATIONAL WEATHER SERVICE NEW YORK NY
500 AM EDT SUN MAY 24 2015

NOTE: "FAIR" INDICATES FEW OR NO CLOUDS BELOW 12,000 FEET WITH NO
SIGNIFICANT WEATHER AND/OR OBSTRUCTIONS TO VISIBILITY.

NYZ071-072-176-178-NJZ106-104-241000-
NEW YORK CITY METRO AREA


CITY           SKY/WX    TMP DP  RH WIND       PRES   REMARKS
CENTRAL PARK   CLEAR     57  37  47 W6        30.37S
LAGUARDIA APRT PTCLDY    56  39  53 SW8       30.34S
KENNEDY INTL   PTCLDY    55  48  77 SW10      30.37S
NEWARK/LIBERTY PTCLDY    51  40  65 SW7       30.36S
BRNX BOT. GARD   N/A     55  37  50 W6        30.36R
TETERBORO      CLEAR     50  38  63 S3        30.34S
$$

NYZ177-179-078>081-241000-
LONG ISLAND NEW YORK

CITY           SKY/WX    TMP DP  RH WIND       PRES   REMARKS
FARMINGDALE    CLEAR     51  45  79 SW5       30.35F
ISLIP          CLEAR     50  45  83 SW5       30.33F
SHIRLEY        CLEAR     53  47  79 W6        30.35S
WESTHAMPTON    CLEAR     52  49  89 SW5       30.36S
MONTAUK POINT    N/A     52  47  83 SW5       30.35F
$$

NYZ052-065-067-241000-
HUDSON VALLEY

CITY           SKY/WX    TMP DP  RH WIND       PRES   REMARKS
WHITE PLAINS   CLEAR     51  39  63 VRB3      30.33S
NEWBURGH       CLEAR     50  36  57 CALM      30.33S
MONTGOMERY     CLEAR     39  36  89 CALM      30.33S
POUGHKEEPSIE   CLEAR     41  37  86 CALM      30.32S
ALBANY         MOCLDY    50  34  54 VRB3      30.29R
$$

NJZ001-105-106-008-010-013-015-019>022-104-241000-
NEW JERSEY

CITY           SKY/WX    TMP DP  RH WIND       PRES   REMARKS
NEWARK/LIBERTY PTCLDY    51  40  65 SW7       30.36S
TETERBORO      CLEAR     50  38  63 S3        30.34S
CALDWELL       CLEAR     45  36  70 CALM      30.35S
MORRISTOWN     CLEAR     41  37  87 CALM      30.36S
SOMERVILLE     CLEAR     38  34  85 CALM      30.35S
SUSSEX         CLEAR     38  34  85 CALM      30.35S
ANDOVER          N/A     41  39  93 CALM      30.35S
TRENTON        CLEAR     46  43  89 SW3       30.36S
MILLVILLE      CLEAR     44  42  93 CALM      30.39S
ATLANTIC CITY  CLEAR     50  47  89 CALM      30.39S
WRIGHTSTOWN    CLEAR     46  46  99 CALM      30.36R
TOMS RIVER     CLEAR    N/A N/A N/A CALM      30.38S
BELMAR         CLEAR     50  43  76 SW5       30.37S
$$

PAZ047>061-062-071-241000-
EASTERN PENNSYLVANIA

CITY           SKY/WX    TMP DP  RH WIND       PRES   REMARKS
PHILADELPHIA   PTCLDY    53  47  79 S6        30.38S
ALLENTOWN      CLEAR     40  34  79 CALM      30.36S
SCRANTON       CLEAR     42  35  76 CALM      30.34S
$$

CTZ002-004>006-009-010-012-RIZ004-006-007-MAZ004-011-015-241000-
SOUTHERN NEW ENGLAND
 IN CT

CITY           SKY/WX    TMP DP  RH WIND       PRES   REMARKS
BRADLEY INTL   PTCLDY    48  42  80 S7        30.28F
HARTFORD       CLEAR     48  43  82 S7        30.31S
DANBURY        CLEAR     43  37  79 CALM      30.34S
WTRBRY/OXFORD  CLEAR     45  36  70 CALM      30.34S
BRIDGEPORT     CLEAR     50  47  89 W3        30.33S
MERIDEN        CLEAR     42  39  89 CALM      30.33S
NEW HAVEN      CLEAR     51  47  86 CALM      30.34S
CHESTER        FAIR      48  46  93 SW7       30.33R
GROTON         CLEAR     52  48  86 SW7       30.33S
WILLIMANTIC    CLEAR     40  37  89 CALM      30.32F

 IN RI

CITY           SKY/WX    TMP DP  RH WIND       PRES   REMARKS
PROVIDENCE     CLEAR     50  44  80 SW10      30.31S
BLOCK ISLAND   CLEAR     52  46  82 SW16      30.33S
WESTERLY       CLEAR     50  47  89 S3        30.33F

 IN MA

CITY           SKY/WX    TMP DP  RH WIND       PRES   REMARKS
BOSTON         PTCLDY    52  38  58 SW16      30.25F
WORCESTER      CLEAR     50  31  48 W14       30.27S
WESTFIELD      NOT AVBL
PROVINCETOWN   CLEAR     52  43  71 SW14G20   30.28F
NANTUCKET      CLEAR     52  47  83 SW15      30.33F
$$

ANZ330-335-338-340-345-350-353-355-241000-
COASTAL MARINE OBSERVATIONS


STATION/POSITION TIME  SKY/WX   TEMP    WIND        PRES    VSBY  WAVE
                                AIR SEA DIR/SP/G                  HT/PER
                 (UTC)          (F)     (DEG/KT/KT) (MB)    (MI)  (FT/S)
NY HARB ENTRANCE 0850            55 54  230/ 14/ 16 1027.7          2/ 5
4S FIRE IS       0803               54                N/A           3/ 5
20S FIRE ISLAND  0850            55 55  240/ 12/ 14 1028.1          3/ 5
GREAT SOUTH BAY  0800            57 62  250/ 14/ 19   N/A
23SW MTP         0850            54 52  240/ 14/ 17 1027.5          3/ 5
HUDSON CANYON    NOT AVBL
KINGS POINT      0800            56 54  210/  6/  7 1027.1
CENTRAL LI SOUND 0830            54 51  230/  6/  8   N/A
EASTERN LI SOUND 0800            51     250/  8/ 10   N/A
ROBBINS REEF     0800            54     240/  5/  7 1026.9
$$


>>>>>>>>>>>>>>>>>>>>>>>>>>>> KEY <<<<<<<<<<<<<<<<<<<<<<<<<<<
>                                                          <
>     SKY/WX - SKY CONDITION/PRESENT WEATHER               <
>     TMP    - TEMPERATURE IN FAHRENHEIT                   <
>     DP     - DEWPOINT IN FAHRENHEIT                      <
>     RH     - RELATIVE HUMIDITY IN PERCENT                <
>     WIND   - DIRECTION AND SPEED IN MPH                  <
>     PRES   - MEAN SEA LEVEL PRESSURE IN INCHES OF HG     <
>     WCI    - WIND CHILL INDEX                            <
>     VSB    - VISIBILITY IN MILES                         <
>     HX     - HEAT INDEX                                  <
>     TC     - TEMPERATURE IN CELSIUS                      <
>     VRB    - VARIABLE WIND DIRECTION                     <
>                                                          <
>>>>>>>>>>>>>>>>>>>>>>>>>>>> KEY <<<<<<<<<<<<<<<<<<<<<<<<<<<




USA.gov is the U.S. government's official web portal to all federal, state and local government web resources and services.